Location: Bagnara
(41.0500°N, 14.7833°E)
Time: 09:42:17
(UTC+00:00)

Nadezhda 4 Rocket - Pass Details

Date: 20 June 2021
Orbit: 950 x 992 km, 82.9° (Epoch: 27 July)

Event Time Altitude Azimuth Distance (km) Brightness Sun altitude
Exits shadow 00:30:48 45° 210° (SSW) 1,285 4.1 -22.3°
Maximum altitude 00:32:45 70° 279° (W) 1,011 4.0 -22.2°
Drops below altitude 10° 00:38:52 10° 3° (N) 2,685 7.3 -21.7°
Sets 00:41:23 0° 6° (N) 3,633 8.3 -21.5°
